Showing default

CHINASAT 1C, 41103

Orbit data source: Space-Track

CHINASAT 1C, 41103 is a payload satellite owned by PLA GAD (CN) in GEO that was launched on Wed, 09 Dec 2015 UTC via a CHANG ZHENG 3B launch vehicle from the Xichang Space Center, China (XSC). Payload-class satellites include a variety of spacecraft equipped with specific instruments for various scientific and technological missions. These include communications satellites like Starlink; space stations such as the ISS; scientific satellites like the Hubble; Earth observation satellites from companies like Planet Labs, Umbra, and HawkEye 360; GPS; miniature CubeSats for education and research; and military/defense satellites.

Loading next visibility...
Identifier
41103, 2015-073A
Orbit
GEO
Country
Flag of CNCN / PRC
Related business
Manufacturer
CAST?
Mission
Non-operational Defense Communications
Bus & Motor
DFH-4?, DFH-4 LAE
Mass
~5,000 kg wet, ~2,500 kg dry
Launch date (UTC)
2015-12-09 (10 years ago)
Launch vehicle
CHANG ZHENG 3B
Launch site
Xichang Space Center, China (XSC)
Object type
Payload
Rocket body
Debris
Shape & HBR
Box + 2 Pan, 15.0 m
Radar Cross Section
34.063 m², Large (>1 m²)

Expand to show TLE details & history
Last TLE update: 21 hours ago

TLE from 21 hours ago
0 CHINASAT 1C
1 41103U 15073A   25303.19395181  .00000020  00000-0  00000-0 0  9997
2 41103   6.5166  71.6311 0007407 169.7075  71.1212  0.99168585 36269
Epoch: 2025-10-30T04:39Z
TLE epoch observation values (Epoch: 2025-10-30T04:39:17.436Z)
Latitude
-5.68258°
Longitude
-156.22834°
Altitude
36,089.059 km
Speed
3.064 km/s
True Right ascension
20h 49m 24s
True Declination
-5° 40' 37"
Sunlit
Object was in daylight at epoch
Visualization orbit readout
Latitude
Unknown
Longitude
Unknown
Altitude
Unknown
Speed
Unknown
Apparent Right ascension
Unknown
Apparent Declination
Unknown
Sunlit
N/A
Visualization observer readout
Local Sidereal Time
21:30:27
Azimuth
Unknown
Elevation
Unknown
Doppler factor
Unknown
Orbital elements
Apogee altitude
36,131.232 km
Perigee altitude
36,068.305 km
Semi-major axis
42,477.905 km
Eccentricity
0.00074
Inclination
6.5166°
RAAN
71.6311°
Arg. of periapsis
169.7075°
True anomaly
71.20154°
Mean anomaly
71.1212°
Eccentric anomaly
71.16137°
Mean motion
0.24791 °/min
Orbital period
1,452.12 mins
BSTAR
0
Loading maneuver chart data...
Computing Atmospheric mass density...
Loading historical data...
Loading historical data...
Loading historical data...
Loading historical data...
Loading historical data...
Loading historical data...
Loading historical data...
Other satellites on launch #73 in the year 2015 (2015-12-09 UTC)

Documentation

Showing up to 5 results
|